Miscellaneous Local Product
Issued by NWS Hastings, NE

Home | Current Version | Previous Version | Graphics & Text | Print | Product List | Glossary On
Versions: 1 2 3 4 5 6 7 8 9 10 11 12 13 14 15 16 17 18 19 20 21 22 23 24 25 26 27 28 29 30 31 32 33 34 35 36 37 38 39 40 41 42 43 44 45 46 47 48 49 50
000
AXUS43 KGID 251202
MISGRI

GID CWA HOURLY WEATHER ROUNDUP
NATIONAL WEATHER SERVICE HASTINGS NE
700 AM CDT THU AUG 25 2016

NOTE: "FAIR" INDICATES FEW OR NO CLOUDS BELOW 12,000 FEET WITH NO
SIGNIFICANT WEATHER AND/OR OBSTRUCTIONS TO VISIBILITY.

...SOUTH CENTRAL NEBRASKA...

CITY           SKY/WX    TMP DP  RH WIND       PRES   REMARKS
GRAND ISLAND   CLOUDY    59  55  87 S6        30.14R
HASTINGS       CLOUDY    59  55  87 CALM      30.15R
KEARNEY        MOCLDY    61  54  77 N3        30.13S
ORD            MOCLDY    57  53  86 NW6       30.15R
YORK           CLOUDY    57  57 100 CALM      30.13R
AURORA         CLOUDY    59  58  98 NW3       30.13R
LEXINGTON      CLOUDY    56  53  91 NW5       30.16S
HOLDREGE       CLOUDY    58  55  90 CALM      30.14S
HEBRON         RAIN      59  58  94 CALM      30.15R

...NEBRASKA PANHANDLE...

CITY           SKY/WX    TMP DP  RH WIND       PRES   REMARKS
CHADRON        LGT RAIN  54  47  77 CALM      30.28R
ALLIANCE       CLOUDY    52  49  89 NE12      30.25R
SCOTTSBLUFF    CLOUDY    52  48  86 CALM      30.25R
SIDNEY         CLEAR     43  38  82 NW5       30.24S

...WESTERN AND NORTH CENTRAL NEBRASKA...

CITY           SKY/WX    TMP DP  RH WIND       PRES   REMARKS
VALENTINE      CLOUDY    47  43  86 W3        30.23R
AINSWORTH      MOCLDY    52  49  89 NW5       30.22R
ONEILL         CLOUDY    58  51  79 N8        30.17R
BROKEN BOW     CLOUDY    56  52  86 N12       30.17R
IMPERIAL       PTCLDY    52  45  77 NW7       30.21R
NORTH PLATTE   CLOUDY    53  50  89 N5        30.19R
MCCOOK         CLOUDY    55  51  86 NW6       30.17R

...EASTERN NEBRASKA...

CITY           SKY/WX    TMP DP  RH WIND       PRES   REMARKS
NORFOLK        CLOUDY    56  54  93 W3        30.12R
SO SIOUX CITY  PTCLDY    57  54  89 S5        30.10R
TEKAMAH        CLEAR     52  50  93 CALM      30.10R
COLUMBUS       CLOUDY    55  46  71 CALM      30.13R
ALBION         CLOUDY    57  54  89 NW8       30.13R
OMAHA EPPLEY   CLOUDY    58  55  90 N5        30.10R
OFFUTT AFB     CLOUDY    58  58 100 NW3       30.08R
MILLARD        PTCLDY    58  56  92 CALM      30.09R
LINCOLN        CLOUDY    59  56  89 NW3       30.12R
NEBRASKA CITY  MOCLDY    61  61 100 N6        30.07F
BEATRICE       LGT RAIN  61  58  92 N5        30.10S
FALLS CITY     CLOUDY    67  64  90 N3        30.04S

...NORTHERN KANSAS...

CITY           SKY/WX    TMP DP  RH WIND       PRES   REMARKS
GOODLAND       PTCLDY    51  48  89 CALM      30.20R
HILL CITY      CLOUDY    59  57  93 CALM      30.16R
NORTON         SUNNY     55  52  88 W6        30.15R
SMITH CENTER   DRIZZLE   55  54  94 CALM      30.12R
BELOIT         CLOUDY    57  55  94 NE13      30.07F
HAYS           CLOUDY    61  52  72 NE10      30.11R
RUSSELL        CLOUDY    60  59  96 N12       30.08R
CONCORDIA      TSTM      60  57  89 NE14      30.08F FOG
SALINA         CLOUDY    65  63  93 N12       30.08R
TOPEKA         TSTM      70  70 100 SE7       30.03R VSB 1



USA.gov is the U.S. government's official web portal to all federal, state and local government web resources and services.